Regional Weather Roundup
Issued by NWS

Home | Current Version | Previous Version | Graphics & Text | Print | Product List | Glossary On
Versions: 1 2 3 4 5 6 7 8 9 10 11 12 13 14 15 16 17 18 19 20 21 22 23 24 25 26 27 28 29 30 31 32 33 34 35 36 37 38 39 40 41 42 43 44 45 46 47 48 49 50
000
ASUS43 KOAX 250602
RWRNE

WEATHER ROUNDUP FOR NEBRASKA
NATIONAL WEATHER SERVICE OMAHA NE
1200 AM CST SUN JAN 25 2015

NOTES: SATELLITE DATA IS BEING USED TO AUGMENT CLOUD COVER ABOVE
       12000 FEET.
       "FAIR" INDICATES FEW OR NO CLOUDS BELOW 12,000 FEET WITH NO
       SIGNIFICANT WEATHER AND/OR OBSTRUCTIONS TO VISIBILITY.

  * THESE STATIONS DO NOT REPORT WEATHER SUCH AS RAIN...SNOW OR FOG.

NEZ001>004-019>022-054>056-250700-
NEBRASKA PANHANDLE

CITY           SKY/WX    TMP DP  RH WIND       PRES   REMARKS
SCOTTSBLUFF    PTCLDY    38  29  70 NW23G35   30.07S WCI  27
6HR MIN TEMP:  37; 6HR MAX TEMP:  41; 6HR PCP:  0.03;

ALLIANCE       CLEAR     35  28  75 NW20      30.00S WCI  24
6HR MIN TEMP:  35; 6HR MAX TEMP:  42;

CHADRON        CLEAR     36  29  75 NW20G31   30.02S WCI  25
6HR MIN TEMP:  36; 6HR MAX TEMP:  44;

SIDNEY         PTCLDY    37  27  67 NW21G30   30.07R WCI  26
6HR MIN TEMP:  37; 6HR MAX TEMP:  41; 6HR PCP: TRACE;

$$

NEZ057>060-069>072-079>082-250700-
SOUTHWEST NEBRASKA

CITY           SKY/WX    TMP DP  RH WIND       PRES   REMARKS
NORTH PLATTE   PTCLDY    39  31  72 NW20G28   29.90S WCI  29
6HR MIN TEMP:  38; 6HR MAX TEMP:  51; 6HR PCP:  0.01;

IMPERIAL       CLEAR     40  28  62 NW28G37   29.98R WCI  29
6HR MIN TEMP:  40; 6HR MAX TEMP:  49; 6HR PCP: TRACE;

MCCOOK         PTCLDY    43  32  65 NW22      29.93R
6HR MIN TEMP:  43; 6HR MAX TEMP:  49;

$$

NEZ005>010-023>029-035>040-094-250700-
NORTH CENTRAL NEBRASKA

CITY           SKY/WX    TMP DP  RH WIND       PRES   REMARKS
VALENTINE      CLOUDY    42  30  62 NW32G46   29.85R
6HR MIN TEMP:  42; 6HR MAX TEMP:  48; 6HR PCP:  0.01;

BROKEN BOW     CLOUDY    45  32  60 NW40G55   29.80R
6HR MIN TEMP:  44; 6HR MAX TEMP:  52;

ORD            LGT RAIN  41  36  82 NW23G40   29.75R
6HR MIN TEMP:  41; 6HR MAX TEMP:  47; 6HR PCP: TRACE;

$$

NEZ041-046>049-061>064-073>077-083>087-250700-
SOUTH CENTRAL NEBRASKA

CITY           SKY/WX    TMP DP  RH WIND       PRES   REMARKS
GRAND ISLAND   MOCLDY    45  34  65 NW24G37   29.73F
6HR MIN TEMP:  44; 6HR MAX TEMP:  48; 6HR PCP: TRACE;

HASTINGS       MOCLDY    46  32  58 NW29G37   29.75R
6HR MIN TEMP:  41; 6HR MAX TEMP:  49; 6HR PCP: TRACE;

KEARNEY *      CLOUDY    45  30  57 NW29G41   29.79S
$$

NEZ011>018-030>034-042>045-250700-
NORTHEAST NEBRASKA

CITY           SKY/WX    TMP DP  RH WIND       PRES   REMARKS
NORFOLK        CLOUDY    41  35  79 NW23G30   29.65R
6HR MIN TEMP:  41; 6HR MAX TEMP:  49; 6HR PCP:  0.02;

COLUMBUS *     CLOUDY    43  36  75 NW13      29.68R
TEKAMAH        CLOUDY    43  37  79 NW30G36   29.61R
6HR MIN TEMP:  43; 6HR MAX TEMP:  48; 6HR PCP: TRACE;

$$

NEZ050>053-065>068-078-088>093-250700-
SOUTHEAST NEBRASKA

CITY           SKY/WX    TMP DP  RH WIND       PRES   REMARKS
LINCOLN        MOCLDY    46  38  73 NW15G25   29.67S
6HR MIN TEMP:  46; 6HR MAX TEMP:  50; 6HR PCP:  0.03;

OMAHA EPPLEY   CLOUDY    45  38  76 NW18      29.61R
6HR MIN TEMP:  45; 6HR MAX TEMP:  51; 6HR PCP:  0.02;

FALLS CITY     LGT RAIN  46  42  86 W10       29.65S
6HR MIN TEMP:  45; 6HR MAX TEMP:  51; 6HR PCP:  0.06;

$$

NEZ044-045-051>053-067-250700-
OMAHA AREA

CITY           SKY/WX    TMP DP  RH WIND       PRES   REMARKS
OMAHA EPPLEY   CLOUDY    45  38  76 NW18      29.61R
6HR MIN TEMP:  45; 6HR MAX TEMP:  51; 6HR PCP:  0.02;

OFFUTT AFB     MOCLDY    44  38  77 NW24G33   29.60S
$$



USA.gov is the U.S. government's official web portal to all federal, state and local government web resources and services.